{"data":{"norad_id":50495,"intl_designator":"2021-132AC","name":"ONEWEB-0420","alt_names":[],"object_type":"PAYLOAD","status":"ACTIVE","operator":null,"country":"UK","launch_date":"2021-12-27","launch_site_code":"TYMSC","launch_vehicle":null,"mission":null,"orbit_class":"UNKNOWN","rcs_meters":null,"size_class":null,"mass_kg":null,"dimensions":null,"purposes":["comms"],"wikipedia_slug":null,"has_3d_model":false,"image_url":null,"decayed_at":null,"tle_current":{"epoch":"2026-09-19T22:36:34.365888Z","epoch_age_seconds":74087,"freshness":"FRESH","line1":"1 50495U 21132AC  26262.94206442  .00000001  00000+0 -29541-4 0  9997","line2":"2 50495  87.9156 316.6280 0001879  91.6027 268.5320 13.18687054234061","mean_motion":13.18687054,"eccentricity":0.0001879,"inclination_deg":87.9156,"raan_deg":316.628,"arg_perigee_deg":91.6027,"mean_anomaly_deg":268.532,"bstar":-2.9541e-5,"rev_number":23406,"period_min":109.19952506033,"perigee_km":1188.3170903789,"apogee_km":1191.1610982151,"semimajor_km":7567.876094297,"source":"CELESTRAK","updated_at":"2026-09-20T09:00:44.705344Z"}}}